Location: Bad Salzschlirf
(50.3750°N, 9.3000°E)
Time: 17:47:44
(UTC+02:00)

ISS - Pass Details

Date: 23 May 2020
Orbit: 417 x 420 km, 51.6° (Epoch: 26 May)

Event Time Altitude Azimuth Distance (km) Brightness Sun altitude
Rises 23:54:23 0° 285° (WNW) 2,368 0.6 -16.4°
Reaches altitude 10° 23:56:29 10° 284° (WNW) 1,503 -0.5 -16.5°
Maximum altitude 23:59:51 78° 198° (SSW) 434 -3.9 -16.7°
Enters shadow 00:00:59 39° 119° (ESE) 650 -3.2 -16.7°
